QTR909 YSSY-OTHH

Flight info

Callsign QTR909
Flight time N/A
Altitude 34000
Route KADOM1/34L KADOM A576 PKS J141 LEC T21 PD N509 ELATI N640 KAT P570 EMURU N563 UMIBU P899 TOVOX
Aircraft A35K/H-SDE2E3GHIJ3J4J5LM1ORWXY/LB1D1

Departure

Time 2026-05-01 10:52
Airport Sydney Kingsford Smith International Airport (YSSY)

Arrival

Time N/A
Airport Hamad International Airport (OTHH)
Time Latitude Longitude Altitude Speed Heading
2026-05-01 10:17 -33.93477 151.16805 27 ft 0 kts 257°
2026-05-01 10:35 -33.93477 151.16806 26 ft 1 kts 257°
2026-05-01 10:36 -33.93469 151.16849 26 ft 3 kts 257°
2026-05-01 10:36 -33.93466 151.16867 24 ft 3 kts 252°
2026-05-01 10:36 -33.93460 151.16886 25 ft 3 kts 230°
2026-05-01 10:37 -33.93451 151.16898 24 ft 3 kts 201°
2026-05-01 10:37 -33.93418 151.16898 26 ft 3 kts 165°
2026-05-01 10:37 -33.93402 151.16893 26 ft 1 kts 167°
2026-05-01 10:38 -33.93403 151.16893 26 ft 1 kts 167°
2026-05-01 10:38 -33.93409 151.16895 26 ft 1 kts 167°
2026-05-01 10:38 -33.93415 151.16897 26 ft 1 kts 167°
2026-05-01 10:38 -33.93421 151.16898 26 ft 1 kts 167°
2026-05-01 10:39 -33.93427 151.16900 26 ft 1 kts 167°
2026-05-01 10:39 -33.93432 151.16902 26 ft 1 kts 167°
2026-05-01 10:39 -33.93438 151.16903 26 ft 1 kts 167°
2026-05-01 10:39 -33.93439 151.16903 26 ft 0 kts 167°
2026-05-01 10:42 -33.93472 151.16914 27 ft 13 kts 170°
2026-05-01 10:42 -33.93532 151.16936 26 ft 3 kts 115°
2026-05-01 10:42 -33.93505 151.17039 26 ft 16 kts 84°
2026-05-01 10:43 -33.93579 151.17125 29 ft 18 kts 173°
2026-05-01 10:43 -33.93782 151.17175 21 ft 46 kts 168°
2026-05-01 10:43 -33.94132 151.17265 28 ft 31 kts 168°
2026-05-01 10:43 -33.94167 151.17274 27 ft 2 kts 168°
2026-05-01 10:44 -33.94204 151.17284 28 ft 3 kts 167°
2026-05-01 10:44 -33.94209 151.17285 28 ft 0 kts 167°
2026-05-01 10:46 -33.94247 151.17296 28 ft 5 kts 167°
2026-05-01 10:47 -33.94387 151.17333 32 ft 30 kts 168°
2026-05-01 10:47 -33.94618 151.17392 32 ft 34 kts 168°
2026-05-01 10:47 -33.94847 151.17451 31 ft 34 kts 168°
2026-05-01 10:47 -33.95077 151.17511 28 ft 33 kts 167°
2026-05-01 10:48 -33.95300 151.17568 26 ft 35 kts 168°
2026-05-01 10:48 -33.95551 151.17633 27 ft 39 kts 168°
2026-05-01 10:48 -33.95818 151.17704 28 ft 40 kts 167°
2026-05-01 10:48 -33.96101 151.17777 30 ft 43 kts 168°
2026-05-01 10:49 -33.96343 151.17840 28 ft 26 kts 167°
2026-05-01 10:49 -33.96431 151.17918 29 ft 4 kts 98°
2026-05-01 10:51 -33.96430 151.17988 29 ft 22 kts 81°
2026-05-01 10:51 -33.96393 151.18043 30 ft 15 kts 29°
2026-05-01 10:51 -33.96341 151.18061 29 ft 13 kts 346°
2026-05-01 10:51 -33.96093 151.17981 27 ft 62 kts 346°
2026-05-01 10:52 -33.95453 151.17813 28 ft 125 kts 348°
2026-05-01 10:52 -33.94433 151.17546 30 ft 178 kts 347°
2026-05-01 10:52 -33.93163 151.17194 579 ft 183 kts 347°
2026-05-01 10:52 -33.91884 151.17124 1208 ft 191 kts
2026-05-01 10:53 -33.90519 151.17097 1412 ft 208 kts 342°
2026-05-01 10:53 -33.89479 151.15907 1649 ft 217 kts 288°
2026-05-01 10:53 -33.89351 151.14077 1856 ft 230 kts 261°
2026-05-01 10:53 -33.89288 151.12092 1844 ft 249 kts 291°
2026-05-01 10:54 -33.88306 151.10348 2035 ft 256 kts 314°
2026-05-01 10:54 -33.87234 151.08625 2553 ft 260 kts 298°
2026-05-01 10:54 -33.86454 151.06678 3037 ft 264 kts 297°
2026-05-01 10:54 -33.85615 151.04704 3546 ft 265 kts 298°
2026-05-01 10:55 -33.84729 151.02748 4093 ft 267 kts 298°
2026-05-01 10:55 -33.84127 151.00632 4616 ft 270 kts 285°
2026-05-01 10:55 -33.83734 150.98406 5149 ft 272 kts 283°
2026-05-01 10:55 -33.83362 150.96175 5657 ft 273 kts 283°
2026-05-01 10:56 -33.82975 150.93925 6149 ft 276 kts 284°
2026-05-01 10:56 -33.82578 150.91656 6648 ft 278 kts 284°
2026-05-01 10:56 -33.82165 150.89375 7121 ft 280 kts 285°
2026-05-01 10:56 -33.81731 150.87080 7588 ft 283 kts 285°
2026-05-01 10:57 -33.81294 150.84763 8051 ft 285 kts 285°
2026-05-01 10:57 -33.80862 150.82451 8508 ft 288 kts 285°
2026-05-01 10:57 -33.80424 150.80090 9002 ft 290 kts 285°
2026-05-01 10:57 -33.79982 150.77707 9474 ft 293 kts 285°
2026-05-01 10:58 -33.79539 150.75309 9954 ft 295 kts 284°
2026-05-01 10:58 -33.79088 150.72871 10329 ft 301 kts 284°
2026-05-01 10:58 -33.78633 150.70418 10628 ft 308 kts 284°
2026-05-01 10:58 -33.78157 150.67851 10841 ft 320 kts 284°
2026-05-01 10:59 -33.77663 150.65189 11037 ft 331 kts 284°
2026-05-01 10:59 -33.77154 150.62445 11238 ft 342 kts 284°
2026-05-01 10:59 -33.76625 150.59601 11430 ft 353 kts 284°
2026-05-01 10:59 -33.76081 150.56672 11620 ft 364 kts 284°
2026-05-01 11:00 -33.75526 150.53696 11816 ft 374 kts 284°
2026-05-01 11:00 -33.74950 150.50602 12009 ft 384 kts 284°
2026-05-01 11:00 -33.74357 150.47427 12197 ft 393 kts 284°
2026-05-01 11:00 -33.73752 150.44192 12494 ft 398 kts 284°
2026-05-01 11:01 -33.73143 150.40937 12893 ft 401 kts 284°
2026-05-01 11:01 -33.72529 150.37660 13280 ft 403 kts 284°
2026-05-01 11:01 -33.71917 150.34404 13698 ft 404 kts 284°
2026-05-01 11:01 -33.71308 150.31099 14071 ft 407 kts 280°
2026-05-01 11:02 -33.70839 150.27733 14403 ft 410 kts 278°
2026-05-01 11:02 -33.70547 150.24315 14717 ft 413 kts 275°
2026-05-01 11:02 -33.69997 150.20935 15068 ft 412 kts 289°
2026-05-01 11:02 -33.68919 150.17754 15460 ft 412 kts 296°
2026-05-01 11:03 -33.67682 150.14634 15826 ft 414 kts 296°
2026-05-01 11:03 -33.66468 150.11488 16180 ft 416 kts 295°
2026-05-01 11:03 -33.65342 150.08272 16537 ft 418 kts 292°
2026-05-01 11:03 -33.64308 150.05003 16893 ft 420 kts 290°
2026-05-01 11:04 -33.63338 150.01684 17234 ft 423 kts 289°
2026-05-01 11:04 -33.62406 149.98329 17592 ft 425 kts 288°
2026-05-01 11:04 -33.61488 149.94946 17931 ft 427 kts 288°
2026-05-01 11:04 -33.60570 149.91542 18262 ft 429 kts 288°
2026-05-01 11:05 -33.59645 149.88125 18592 ft 431 kts 288°
2026-05-01 11:05 -33.58721 149.84728 18898 ft 433 kts 288°
2026-05-01 11:05 -33.57780 149.81293 19212 ft 434 kts 288°
2026-05-01 11:05 -33.56833 149.77850 19538 ft 435 kts 288°
2026-05-01 11:06 -33.55881 149.74401 19850 ft 436 kts 289°
2026-05-01 11:06 -33.54923 149.70937 20177 ft 437 kts 289°
2026-05-01 11:06 -33.53961 149.67463 20480 ft 439 kts 289°
2026-05-01 11:07 -33.52039 149.60536 21097 ft 443 kts 289°
2026-05-01 11:07 -33.51062 149.57024 21407 ft 444 kts 289°
2026-05-01 11:07 -33.50082 149.53506 21733 ft 446 kts 289°
2026-05-01 11:07 -33.49097 149.49968 22054 ft 448 kts 289°
2026-05-01 11:08 -33.48108 149.46425 22383 ft 449 kts 289°
2026-05-01 11:08 -33.47115 149.42867 22715 ft 451 kts 289°
2026-05-01 11:08 -33.45125 149.35754 23378 ft 453 kts 289°
2026-05-01 11:09 -33.44116 149.32154 23705 ft 455 kts 289°
2026-05-01 11:09 -33.43105 149.28553 24007 ft 457 kts 289°
2026-05-01 11:09 -33.42090 149.24940 24279 ft 458 kts 289°
2026-05-01 11:10 -33.40048 149.17685 24838 ft 461 kts 289°
2026-05-01 11:10 -33.39032 149.14084 25102 ft 462 kts 289°
2026-05-01 11:10 -33.38002 149.10437 25391 ft 463 kts 288°
2026-05-01 11:10 -33.36965 149.06770 25666 ft 464 kts 288°
2026-05-01 11:11 -33.35928 149.03108 25951 ft 465 kts 288°
2026-05-01 11:11 -33.34885 148.99430 26217 ft 467 kts 288°
2026-05-01 11:11 -33.33835 148.95730 26438 ft 470 kts 288°
2026-05-01 11:11 -33.32794 148.92067 26668 ft 472 kts 288°
2026-05-01 11:12 -33.31730 148.88329 26935 ft 474 kts 288°
2026-05-01 11:12 -33.30665 148.84588 27201 ft 475 kts 288°
2026-05-01 11:12 -33.29593 148.80830 27469 ft 477 kts 288°
2026-05-01 11:12 -33.28520 148.77074 27705 ft 478 kts 288°
2026-05-01 11:13 -33.27441 148.73301 27962 ft 480 kts 288°
2026-05-01 11:13 -33.26370 148.69566 28202 ft 481 kts 288°
2026-05-01 11:13 -33.25281 148.65768 28442 ft 483 kts 288°
2026-05-01 11:13 -33.24189 148.61966 28674 ft 484 kts 288°
2026-05-01 11:14 -33.23464 148.59442 28821 ft 485 kts 288°
2026-05-01 11:14 -33.22369 148.55639 29046 ft 486 kts 288°
2026-05-01 11:14 -33.21268 148.51818 29358 ft 485 kts 288°
2026-05-01 11:14 -33.20171 148.48020 29732 ft 483 kts 288°
2026-05-01 11:15 -33.19076 148.44231 30057 ft 481 kts 288°
2026-05-01 11:15 -33.17985 148.40458 30384 ft 480 kts 288°
2026-05-01 11:15 -33.16895 148.36697 30667 ft 478 kts 288°
2026-05-01 11:15 -33.15809 148.32957 30972 ft 476 kts 288°
2026-05-01 11:16 -33.14729 148.29238 31285 ft 473 kts 288°
2026-05-01 11:16 -33.13653 148.25537 31573 ft 471 kts 288°
2026-05-01 11:16 -33.12589 148.21844 31836 ft 469 kts 287°
2026-05-01 11:16 -33.11692 148.18156 32077 ft 468 kts 284°
2026-05-01 11:17 -33.10909 148.14389 32324 ft 466 kts 282°
2026-05-01 11:17 -33.10173 148.10629 32568 ft 465 kts 282°
2026-05-01 11:17 -33.09438 148.06879 32785 ft 464 kts 282°
2026-05-01 11:17 -33.08687 148.03142 32986 ft 463 kts 283°
2026-05-01 11:18 -33.07914 147.99409 33189 ft 462 kts 283°
2026-05-01 11:18 -33.07138 147.95738 33360 ft 462 kts 283°
2026-05-01 11:18 -33.06343 147.92035 33551 ft 461 kts 283°
2026-05-01 11:18 -33.05542 147.88331 33718 ft 461 kts 283°
2026-05-01 11:19 -33.04736 147.84620 33883 ft 460 kts 283°
2026-05-01 11:19 -33.03931 147.80914 34034 ft 460 kts 283°
2026-05-01 11:19 -33.03128 147.77224 34187 ft 460 kts 283°
2026-05-01 11:19 -33.02335 147.73580 34286 ft 461 kts 283°
2026-05-01 11:20 -33.00711 147.66128 34297 ft 466 kts 283°
2026-05-01 11:20 -32.99079 147.58655 34286 ft 465 kts 283°
2026-05-01 11:21 -32.97453 147.51234 34283 ft 465 kts 283°
2026-05-01 11:21 -32.95825 147.43780 34283 ft 465 kts 283°
2026-05-01 11:22 -32.94219 147.36310 34279 ft 464 kts 283°
2026-05-01 11:22 -32.92613 147.28910 34288 ft 463 kts 283°
2026-05-01 11:23 -32.90961 147.21501 34283 ft 462 kts 283°
2026-05-01 11:23 -32.89280 147.14105 34282 ft 462 kts 284°
2026-05-01 11:24 -32.87606 147.06735 34281 ft 461 kts 284°
2026-05-01 11:25 -32.85134 146.95742 34277 ft 460 kts 283°
2026-05-01 11:25 -32.82676 146.84720 34280 ft 459 kts 283°
2026-05-01 11:26 -32.80201 146.73729 34273 ft 458 kts 283°
2026-05-01 11:27 -32.78551 146.66454 34277 ft 458 kts 284°
2026-05-01 11:27 -32.76888 146.59150 34273 ft 457 kts 284°
2026-05-01 11:28 -32.75222 146.51852 34267 ft 457 kts 284°
2026-05-01 11:28 -32.73563 146.44602 34264 ft 457 kts 284°
2026-05-01 11:29 -32.71052 146.33669 34268 ft 457 kts 284°
2026-05-01 11:30 -32.68540 146.22780 34268 ft 457 kts 284°
2026-05-01 11:30 -32.66852 146.15487 34267 ft 456 kts 284°
2026-05-01 11:31 -32.65163 146.08210 34260 ft 456 kts 284°
2026-05-01 11:31 -32.63476 146.00968 34255 ft 456 kts 284°
2026-05-01 11:32 -32.61781 145.93742 34254 ft 456 kts 285°
2026-05-01 11:32 -32.60071 145.86507 34251 ft 456 kts 284°
2026-05-01 11:33 -32.58360 145.79247 34252 ft 456 kts 284°
2026-05-01 11:33 -32.56662 145.72042 34249 ft 456 kts 284°
2026-05-01 11:34 -32.54952 145.64797 34249 ft 456 kts 284°
2026-05-01 11:34 -32.53236 145.57548 34241 ft 456 kts 284°
2026-05-01 11:35 -32.51518 145.50315 34247 ft 456 kts 285°
2026-05-01 11:35 -32.49805 145.43121 34240 ft 456 kts 285°
2026-05-01 11:36 -32.48079 145.35894 34235 ft 455 kts 285°
2026-05-01 11:36 -32.46352 145.28685 34238 ft 454 kts 285°
2026-05-01 11:37 -32.44618 145.21470 34233 ft 454 kts 285°
2026-05-01 11:37 -32.42897 145.14336 34229 ft 453 kts 285°
2026-05-01 11:38 -32.41165 145.07170 34230 ft 452 kts 284°
2026-05-01 11:38 -32.39448 144.99997 34232 ft 451 kts 284°
2026-05-01 11:39 -32.37735 144.92858 34233 ft 450 kts 284°
2026-05-01 11:39 -32.36037 144.85727 34224 ft 449 kts 284°
2026-05-01 11:40 -32.34368 144.78607 34227 ft 449 kts 284°
2026-05-01 11:40 -32.32625 144.71516 34225 ft 448 kts 284°
2026-05-01 11:41 -32.30850 144.64487 34216 ft 448 kts 285°
2026-05-01 11:41 -32.29067 144.57431 34221 ft 447 kts 284°
2026-05-01 11:42 -32.27388 144.50348 34221 ft 446 kts 282°
2026-05-01 11:42 -32.25840 144.43283 34213 ft 446 kts 281°
2026-05-01 11:43 -32.24141 144.36244 34210 ft 446 kts 284°
2026-05-01 11:43 -32.22304 144.29248 34209 ft 445 kts 285°
2026-05-01 11:44 -32.19567 144.18775 34206 ft 444 kts 284°
2026-05-01 11:44 -32.17844 144.11792 34205 ft 443 kts 283°
2026-05-01 11:45 -32.16124 144.04817 34200 ft 442 kts 284°
2026-05-01 11:45 -32.14391 143.97907 34200 ft 441 kts 284°
2026-05-01 11:46 -32.12644 143.90968 34201 ft 441 kts 284°
2026-05-01 11:46 -32.10877 143.84030 34180 ft 441 kts 284°
2026-05-01 11:47 -32.09103 143.77114 34195 ft 440 kts 284°
2026-05-01 11:47 -32.07348 143.70197 34198 ft 440 kts 284°
2026-05-01 11:48 -32.05596 143.63320 34178 ft 440 kts 284°
2026-05-01 11:48 -32.03814 143.56414 34193 ft 439 kts 285°
2026-05-01 11:49 -32.02019 143.49512 34194 ft 439 kts 285°
2026-05-01 11:49 -32.00239 143.42630 34169 ft 439 kts 285°
2026-05-01 11:50 -31.98466 143.35743 34178 ft 439 kts 285°
2026-05-01 11:50 -31.96704 143.28913 34181 ft 438 kts 285°
2026-05-01 11:51 -31.94929 143.22048 34162 ft 438 kts 285°
2026-05-01 11:51 -31.93150 143.15189 34161 ft 437 kts 285°
2026-05-01 11:52 -31.91371 143.08344 34158 ft 437 kts 285°
2026-05-01 11:52 -31.89587 143.01498 34161 ft 437 kts 285°
2026-05-01 11:53 -31.87799 142.94653 34172 ft 437 kts 285°
2026-05-01 11:53 -31.86010 142.87821 34173 ft 437 kts 285°
2026-05-01 11:54 -31.84231 142.81043 34163 ft 436 kts 285°
2026-05-01 11:54 -31.82436 142.74225 34166 ft 436 kts 285°
2026-05-01 11:55 -31.80639 142.67408 34161 ft 436 kts 285°
2026-05-01 11:55 -31.78836 142.60590 34161 ft 436 kts 285°
2026-05-01 11:56 -31.77034 142.53794 34161 ft 435 kts 285°
2026-05-01 11:56 -31.75230 142.47004 34156 ft 435 kts 285°
2026-05-01 11:57 -31.73728 142.41362 34160 ft 434 kts 285°
2026-05-01 11:57 -31.71637 142.33494 34160 ft 434 kts 286°
2026-05-01 11:58 -31.69834 142.26716 34164 ft 433 kts 285°
2026-05-01 11:59 -31.67138 142.16604 34158 ft 432 kts 285°
2026-05-01 11:59 -31.65333 142.09871 34158 ft 432 kts 286°
2026-05-01 12:00 -31.62631 141.99831 34149 ft 431 kts 286°
2026-05-01 12:01 -31.59895 141.89800 34145 ft 430 kts 286°
2026-05-01 12:01 -31.58380 141.84238 34151 ft 430 kts 285°
2026-05-01 12:02 -31.56583 141.77513 34149 ft 429 kts 286°
2026-05-01 12:02 -31.54770 141.70865 34148 ft 429 kts 287°
2026-05-01 12:03 -31.52878 141.64242 34157 ft 428 kts 287°
2026-05-01 12:03 -31.51018 141.57650 34133 ft 427 kts 287°
2026-05-01 12:04 -31.49224 141.51035 34133 ft 427 kts 287°
2026-05-01 12:04 -31.47406 141.44373 34147 ft 426 kts 287°
2026-05-01 12:05 -31.45585 141.37821 34122 ft 426 kts 288°
2026-05-01 12:05 -31.42822 141.27940 34123 ft 425 kts 288°
2026-05-01 12:06 -31.40994 141.21367 34121 ft 424 kts 288°
2026-05-01 12:06 -31.39173 141.14816 34116 ft 424 kts 288°
2026-05-01 12:07 -31.37337 141.08225 34112 ft 423 kts 288°
2026-05-01 12:07 -31.35512 141.01691 34111 ft 423 kts 288°
2026-05-01 12:08 -31.33689 140.95194 34107 ft 423 kts 288°
2026-05-01 12:08 -31.31837 140.88644 34108 ft 422 kts 288°
2026-05-01 12:09 -31.29992 140.82131 34109 ft 422 kts 288°
2026-05-01 12:09 -31.28142 140.75614 34109 ft 422 kts 288°
2026-05-01 12:10 -31.25372 140.65872 34101 ft 421 kts 288°
2026-05-01 12:11 -31.22604 140.56169 34097 ft 421 kts 288°
2026-05-01 12:11 -31.20746 140.49673 34093 ft 420 kts 288°
2026-05-01 12:12 -31.18900 140.43232 34094 ft 420 kts 288°
2026-05-01 12:12 -31.17045 140.36776 34091 ft 420 kts 288°
2026-05-01 12:13 -31.15180 140.30302 34090 ft 419 kts 289°
2026-05-01 12:13 -31.13306 140.23853 34087 ft 419 kts 289°
2026-05-01 12:14 -31.11447 140.17459 34083 ft 418 kts 289°
2026-05-01 12:14 -31.09581 140.11032 34083 ft 418 kts 289°
2026-05-01 12:15 -31.07717 140.04609 34081 ft 418 kts 289°
2026-05-01 12:15 -31.05851 139.98197 34082 ft 417 kts 289°
2026-05-01 12:16 -31.03982 139.91789 34080 ft 417 kts 289°
2026-05-01 12:16 -31.02113 139.85388 34074 ft 417 kts 289°
2026-05-01 12:17 -31.00242 139.78994 34071 ft 417 kts 289°
2026-05-01 12:17 -30.98367 139.72602 34075 ft 416 kts 289°
2026-05-01 12:18 -30.96506 139.66268 34070 ft 416 kts 289°
2026-05-01 12:18 -30.94626 139.59885 34076 ft 416 kts 289°
2026-05-01 12:19 -30.92745 139.53518 34074 ft 415 kts 289°
2026-05-01 12:19 -30.90864 139.47163 34070 ft 415 kts 289°
2026-05-01 12:20 -30.88983 139.40817 34073 ft 415 kts 289°
2026-05-01 12:20 -30.87099 139.34472 34072 ft 414 kts 289°
2026-05-01 12:21 -30.85222 139.28165 34077 ft 414 kts 289°
2026-05-01 12:21 -30.83336 139.21841 34080 ft 413 kts 289°
2026-05-01 12:22 -30.81447 139.15523 34082 ft 412 kts 289°
2026-05-01 12:22 -30.79560 139.09219 34082 ft 412 kts 289°
2026-05-01 12:23 -30.77683 139.02965 34085 ft 412 kts 289°
2026-05-01 12:23 -30.75790 138.96667 34085 ft 411 kts 289°
2026-05-01 12:24 -30.73909 138.90411 34087 ft 411 kts 290°
2026-05-01 12:24 -30.72015 138.84135 34087 ft 411 kts 290°
2026-05-01 12:25 -30.69166 138.74724 34081 ft 411 kts 290°
2026-05-01 12:26 -30.67266 138.68459 34079 ft 411 kts 290°
2026-05-01 12:26 -30.64421 138.59107 34069 ft 411 kts 290°
2026-05-01 12:27 -30.61561 138.49727 34060 ft 411 kts 290°
2026-05-01 12:28 -30.58382 138.40498 34052 ft 410 kts 294°
2026-05-01 12:29 -30.54776 138.31489 34044 ft 410 kts 295°
2026-05-01 12:29 -30.51152 138.22545 34039 ft 410 kts 295°
2026-05-01 12:30 -30.47523 138.13571 34036 ft 409 kts 295°
2026-05-01 12:31 -30.45104 138.07597 34028 ft 409 kts 295°
2026-05-01 12:31 -30.42684 138.01630 34031 ft 409 kts 295°
2026-05-01 12:32 -30.40276 137.95702 34024 ft 408 kts 295°
2026-05-01 12:32 -30.36640 137.86771 34018 ft 408 kts 295°
2026-05-01 12:33 -30.34214 137.80826 34016 ft 408 kts 295°
2026-05-01 12:33 -30.31804 137.74930 34014 ft 407 kts 295°
2026-05-01 12:34 -30.29380 137.69006 34013 ft 407 kts 295°
2026-05-01 12:34 -30.26965 137.63087 34006 ft 406 kts 294°
2026-05-01 12:35 -30.24585 137.57148 33990 ft 406 kts 295°
2026-05-01 12:35 -30.22245 137.51261 33995 ft 405 kts 292°
2026-05-01 12:36 -30.19921 137.45317 34005 ft 405 kts 294°
2026-05-01 12:36 -30.17514 137.39437 33996 ft 404 kts 296°
2026-05-01 12:37 -30.15049 137.33598 34007 ft 404 kts 294°
2026-05-01 12:37 -30.12563 137.27774 33990 ft 403 kts 294°
2026-05-01 12:38 -30.10152 137.21973 33984 ft 403 kts 294°
2026-05-01 12:38 -30.07705 137.16133 34003 ft 403 kts 296°
2026-05-01 12:39 -30.05235 137.10329 33992 ft 402 kts 295°
2026-05-01 12:39 -30.02817 137.04541 33997 ft 402 kts 292°
2026-05-01 12:40 -30.00405 136.98727 33992 ft 401 kts 294°
2026-05-01 12:40 -29.98061 136.92887 33987 ft 401 kts 293°
2026-05-01 12:41 -29.95716 136.87027 33989 ft 401 kts 294°
2026-05-01 12:41 -29.93312 136.81265 33989 ft 401 kts 293°
2026-05-01 12:42 -29.90885 136.75486 33984 ft 400 kts 295°
2026-05-01 12:42 -29.88389 136.69744 33987 ft 400 kts 296°
2026-05-01 12:43 -29.85891 136.64012 33984 ft 399 kts 294°
2026-05-01 12:43 -29.83490 136.58283 33985 ft 399 kts 293°
2026-05-01 12:44 -29.81094 136.52514 33980 ft 399 kts 295°
2026-05-01 12:45 -29.76113 136.41143 33977 ft 398 kts 295°
2026-05-01 12:45 -29.73662 136.35428 33973 ft 398 kts 295°
2026-05-01 12:46 -29.71230 136.29704 33969 ft 398 kts 295°
2026-05-01 12:46 -29.68802 136.23984 33974 ft 398 kts 295°
2026-05-01 12:47 -29.66373 136.18302 33972 ft 397 kts 295°
2026-05-01 12:47 -29.63921 136.12594 33969 ft 397 kts 295°
2026-05-01 12:48 -29.61472 136.06899 33970 ft 397 kts 295°
2026-05-01 12:48 -29.59025 136.01214 33963 ft 396 kts 295°
2026-05-01 12:49 -29.56588 135.95561 33964 ft 396 kts 295°
2026-05-01 12:49 -29.54140 135.89892 33961 ft 395 kts 295°
2026-05-01 12:50 -29.51694 135.84236 33965 ft 394 kts 295°
2026-05-01 12:50 -29.49254 135.78598 33956 ft 394 kts 295°
2026-05-01 12:51 -29.46816 135.72975 33959 ft 393 kts 295°
2026-05-01 12:52 -29.43178 135.64599 33958 ft 392 kts 295°
2026-05-01 12:52 -29.39528 135.56214 33955 ft 391 kts 295°
2026-05-01 12:53 -29.36289 135.48787 33945 ft 390 kts 295°
2026-05-01 12:54 -29.33857 135.43220 33945 ft 390 kts 295°
2026-05-01 12:54 -29.30225 135.34921 33943 ft 389 kts 295°
2026-05-01 12:55 -29.26574 135.26598 33946 ft 389 kts 295°
2026-05-01 12:56 -29.24140 135.21059 33941 ft 389 kts 295°
2026-05-01 12:56 -29.21717 135.15552 33941 ft 389 kts 295°
2026-05-01 12:57 -29.19281 135.10023 33939 ft 389 kts 295°
2026-05-01 12:57 -29.15620 135.01731 33933 ft 388 kts 295°
2026-05-01 12:58 -29.13196 134.96249 33934 ft 388 kts 295°
2026-05-01 12:59 -29.09536 134.87985 33934 ft 387 kts 295°
2026-05-01 12:59 -29.05883 134.79756 33930 ft 387 kts 295°
2026-05-01 13:00 -29.02240 134.71567 33931 ft 386 kts 295°
2026-05-01 13:01 -28.98588 134.63373 33941 ft 385 kts 295°
2026-05-01 13:02 -28.94942 134.55212 33937 ft 384 kts 295°
2026-05-01 13:07 -28.68244 133.95951 33957 ft 380 kts 295°
2026-05-01 13:08 -28.65813 133.90598 33959 ft 380 kts 295°
2026-05-01 13:08 -28.63382 133.85253 33957 ft 380 kts 295°
2026-05-01 13:09 -28.60952 133.79917 33959 ft 380 kts 295°
2026-05-01 13:09 -28.58534 133.74616 33957 ft 379 kts 295°
2026-05-01 13:10 -28.56103 133.69290 33961 ft 379 kts 295°
2026-05-01 13:10 -28.53668 133.63964 33957 ft 380 kts 295°
2026-05-01 13:11 -28.51226 133.58628 33956 ft 380 kts 295°
2026-05-01 13:11 -28.48778 133.53288 33958 ft 380 kts 295°
2026-05-01 13:12 -28.46328 133.47950 33955 ft 381 kts 295°
2026-05-01 13:12 -28.43889 133.42644 33957 ft 381 kts 295°
2026-05-01 13:13 -28.41429 133.37298 33953 ft 381 kts 295°
2026-05-01 13:13 -28.38975 133.31973 33955 ft 382 kts 295°
2026-05-01 13:14 -28.36504 133.26617 33956 ft 382 kts 295°
2026-05-01 13:14 -28.34028 133.21258 33960 ft 383 kts 295°
2026-05-01 13:15 -28.31570 133.15947 33954 ft 383 kts 295°
2026-05-01 13:15 -28.29087 133.10586 33952 ft 383 kts 295°
2026-05-01 13:16 -28.26608 133.05242 33954 ft 383 kts 295°
2026-05-01 13:16 -28.24128 132.99902 33954 ft 383 kts 295°
2026-05-01 13:17 -28.19154 132.89213 33959 ft 384 kts 295°
2026-05-01 13:18 -28.15405 132.81174 33962 ft 384 kts 295°
2026-05-01 13:18 -28.12917 132.75848 33955 ft 384 kts 295°
2026-05-01 13:19 -28.10416 132.70501 33958 ft 384 kts 295°
2026-05-01 13:20 -28.06656 132.62475 33957 ft 384 kts 295°
2026-05-01 13:20 -28.04163 132.57163 33961 ft 384 kts 296°
2026-05-01 13:21 -28.00386 132.49129 33961 ft 384 kts 296°
2026-05-01 13:21 -27.97887 132.43820 33954 ft 385 kts 296°
2026-05-01 13:22 -27.95366 132.38472 33959 ft 385 kts 296°
2026-05-01 13:22 -27.92833 132.33106 33972 ft 386 kts 296°
2026-05-01 13:23 -27.90300 132.27747 33967 ft 386 kts 296°
2026-05-01 13:23 -27.87772 132.22405 33967 ft 386 kts 296°
2026-05-01 13:24 -27.85253 132.17087 33969 ft 385 kts 296°
2026-05-01 13:25 -27.81448 132.09071 33972 ft 385 kts 296°
2026-05-01 13:25 -27.78916 132.03743 33970 ft 385 kts 296°
2026-05-01 13:26 -27.76387 131.98429 33978 ft 385 kts 296°
2026-05-01 13:26 -27.73851 131.93107 33974 ft 385 kts 296°
2026-05-01 13:27 -27.71305 131.87773 33972 ft 385 kts 296°
2026-05-01 13:27 -27.67496 131.79806 33982 ft 386 kts 296°
2026-05-01 13:28 -27.63665 131.71806 33977 ft 386 kts 296°
2026-05-01 13:29 -27.58559 131.61170 33979 ft 386 kts 296°
2026-05-01 13:31 -27.50872 131.45204 33975 ft 387 kts 296°
2026-05-01 13:32 -27.44438 131.31891 33986 ft 388 kts 296°
2026-05-01 13:33 -27.37966 131.18538 33982 ft 388 kts 296°
2026-05-01 13:34 -27.32797 131.07903 33982 ft 389 kts 296°
2026-05-01 13:35 -27.28895 130.99894 33988 ft 389 kts 296°
2026-05-01 13:36 -27.24993 130.91901 33985 ft 390 kts 296°
2026-05-01 13:36 -27.21083 130.83905 33986 ft 390 kts 297°
2026-05-01 13:37 -27.18890 130.79429 33985 ft 390 kts 297°
2026-05-01 13:37 -27.15831 130.73189 33987 ft 391 kts 297°
2026-05-01 13:38 -27.11899 130.65183 33988 ft 391 kts 297°
2026-05-01 13:39 -27.09271 130.59838 33984 ft 391 kts 297°
2026-05-01 13:39 -27.06645 130.54507 33988 ft 392 kts 297°
2026-05-01 13:40 -27.03990 130.49122 33988 ft 392 kts 297°
2026-05-01 13:40 -27.01355 130.43784 33990 ft 393 kts 297°
2026-05-01 13:41 -26.98714 130.38441 33992 ft 393 kts 297°
2026-05-01 13:41 -26.96049 130.33055 33991 ft 393 kts 297°
2026-05-01 13:42 -26.93407 130.27722 33993 ft 393 kts 297°
2026-05-01 13:42 -26.91195 130.23264 33994 ft 394 kts 297°
2026-05-01 13:43 -26.88083 130.17000 33997 ft 394 kts 297°
2026-05-01 13:43 -26.85868 130.12545 33997 ft 394 kts 297°
2026-05-01 13:44 -26.83187 130.07160 34000 ft 394 kts 297°
2026-05-01 13:44 -26.80516 130.01801 34000 ft 394 kts 297°
2026-05-01 13:45 -26.77849 129.96456 33999 ft 394 kts 297°
2026-05-01 13:45 -26.75167 129.91089 34005 ft 394 kts 297°
2026-05-01 13:46 -26.72490 129.85739 34003 ft 395 kts 296°
2026-05-01 13:46 -26.69825 129.80420 34006 ft 395 kts 296°
2026-05-01 13:47 -26.67137 129.75062 34008 ft 395 kts 296°
2026-05-01 13:47 -26.64452 129.69714 34010 ft 395 kts 296°
2026-05-01 13:48 -26.61754 129.64347 34011 ft 394 kts 296°
2026-05-01 13:48 -26.59064 129.59004 34014 ft 395 kts 296°
2026-05-01 13:49 -26.56382 129.53682 34010 ft 395 kts 296°
2026-05-01 13:49 -26.53670 129.48306 34013 ft 395 kts 296°
2026-05-01 13:50 -26.50976 129.42973 34010 ft 395 kts 296°
2026-05-01 13:50 -26.48284 129.37652 34015 ft 395 kts 296°
2026-05-01 13:51 -26.45575 129.32302 34014 ft 395 kts 296°
2026-05-01 13:51 -26.42874 129.26975 34012 ft 395 kts 296°
2026-05-01 13:52 -26.40167 129.21641 34009 ft 396 kts 296°
2026-05-01 13:52 -26.37447 129.16290 34019 ft 396 kts 296°
2026-05-01 13:53 -26.34744 129.10980 34008 ft 396 kts 296°
2026-05-01 13:53 -26.30668 129.02981 34022 ft 396 kts 296°
2026-05-01 13:54 -26.27943 128.97642 34012 ft 396 kts 296°
2026-05-01 13:54 -26.25201 128.92280 34023 ft 397 kts 296°
2026-05-01 13:55 -26.22475 128.86956 34022 ft 397 kts 296°
2026-05-01 13:55 -26.19734 128.81604 34021 ft 397 kts 296°
2026-05-01 13:56 -26.16992 128.76256 34023 ft 397 kts 296°
2026-05-01 13:56 -26.14251 128.70920 34025 ft 397 kts 296°
2026-05-01 13:57 -26.11505 128.65581 34020 ft 398 kts 296°
2026-05-01 13:57 -26.08766 128.60259 34024 ft 398 kts 296°
2026-05-01 13:58 -26.06007 128.54907 34024 ft 399 kts 296°
2026-05-01 13:58 -26.03246 128.49557 34021 ft 399 kts 296°
2026-05-01 13:59 -26.00482 128.44208 34022 ft 399 kts 296°
2026-05-01 13:59 -25.97711 128.38852 34031 ft 399 kts 296°
2026-05-01 14:00 -25.94942 128.33507 34028 ft 400 kts 296°
2026-05-01 14:00 -25.92179 128.28175 34028 ft 401 kts 296°
2026-05-01 14:01 -25.89381 128.22784 34025 ft 402 kts 296°
2026-05-01 14:01 -25.86579 128.17394 34027 ft 402 kts 296°
2026-05-01 14:02 -25.83778 128.12013 34032 ft 402 kts 296°
2026-05-01 14:02 -25.80987 128.06655 34027 ft 403 kts 296°
2026-05-01 14:03 -25.78179 128.01272 34025 ft 404 kts 296°
2026-05-01 14:03 -25.75374 127.95900 34027 ft 404 kts 296°
2026-05-01 14:04 -25.72543 127.90483 34024 ft 404 kts 296°
2026-05-01 14:04 -25.70190 127.85987 34026 ft 405 kts 296°
2026-05-01 14:05 -25.66884 127.79679 34027 ft 405 kts 296°
2026-05-01 14:05 -25.64065 127.74306 34023 ft 406 kts 296°
2026-05-01 14:06 -25.61232 127.68914 34026 ft 406 kts 296°
2026-05-01 14:06 -25.58383 127.63496 34020 ft 406 kts 296°
2026-05-01 14:07 -25.55543 127.58103 34018 ft 406 kts 296°
2026-05-01 14:08 -25.51273 127.50003 34016 ft 407 kts 296°
2026-05-01 14:08 -25.48414 127.44587 34016 ft 408 kts 296°
2026-05-01 14:09 -25.45538 127.39148 34013 ft 408 kts 296°
2026-05-01 14:09 -25.42680 127.33749 34015 ft 408 kts 296°
2026-05-01 14:10 -25.39813 127.28340 34016 ft 408 kts 296°
2026-05-01 14:10 -25.36941 127.22928 34014 ft 408 kts 296°
2026-05-01 14:11 -25.34058 127.17500 34019 ft 409 kts 296°
2026-05-01 14:11 -25.29723 127.09349 34011 ft 409 kts 296°
2026-05-01 14:12 -25.26849 127.03955 34010 ft 410 kts 296°
2026-05-01 14:12 -25.23960 126.98537 34013 ft 410 kts 296°
2026-05-01 14:13 -25.21536 126.93997 34015 ft 410 kts 296°
2026-05-01 14:13 -25.18164 126.87690 34009 ft 410 kts 296°
2026-05-01 14:14 -25.15274 126.82289 34008 ft 410 kts 296°
2026-05-01 14:14 -25.12376 126.76880 34009 ft 410 kts 296°
2026-05-01 14:15 -25.09465 126.71453 34008 ft 410 kts 296°
2026-05-01 14:15 -25.06566 126.66055 34009 ft 410 kts 296°
2026-05-01 14:16 -25.03660 126.60649 34011 ft 410 kts 296°
2026-05-01 14:16 -25.00759 126.55259 34011 ft 410 kts 296°
2026-05-01 14:17 -24.97845 126.49851 34010 ft 410 kts 296°
2026-05-01 14:17 -24.94932 126.44452 34011 ft 410 kts 296°
2026-05-01 14:18 -24.92013 126.39048 34008 ft 411 kts 296°
2026-05-01 14:18 -24.89570 126.34530 33999 ft 411 kts 296°
2026-05-01 14:19 -24.86167 126.28243 34004 ft 412 kts 296°
2026-05-01 14:19 -24.83226 126.22815 34010 ft 412 kts 296°
2026-05-01 14:20 -24.78821 126.14698 34009 ft 413 kts 296°
2026-05-01 14:21 -24.75862 126.09255 34009 ft 413 kts 296°
2026-05-01 14:21 -24.72921 126.03851 34006 ft 413 kts 297°
2026-05-01 14:22 -24.68482 125.95705 34012 ft 414 kts 297°
2026-05-01 14:22 -24.65518 125.90272 34009 ft 414 kts 297°
2026-05-01 14:23 -24.62560 125.84856 34010 ft 415 kts 297°
2026-05-01 14:23 -24.59596 125.79438 34007 ft 415 kts 297°
2026-05-01 14:24 -24.56617 125.73998 34007 ft 415 kts 297°
2026-05-01 14:24 -24.53627 125.68542 34009 ft 415 kts 297°
2026-05-01 14:25 -24.50657 125.63130 34009 ft 416 kts 297°
2026-05-01 14:25 -24.47656 125.57667 34005 ft 416 kts 297°
2026-05-01 14:26 -24.43164 125.49502 34004 ft 417 kts 297°
2026-05-01 14:27 -24.40170 125.44067 34007 ft 417 kts 297°
2026-05-01 14:27 -24.37170 125.38628 34008 ft 418 kts 297°
2026-05-01 14:28 -24.32646 125.30438 34008 ft 418 kts 297°
2026-05-01 14:28 -24.29635 125.24994 34005 ft 419 kts 297°
2026-05-01 14:29 -24.26604 125.19519 34006 ft 419 kts 297°
2026-05-01 14:30 -24.20549 125.08602 34008 ft 421 kts 297°
2026-05-01 14:31 -24.15986 125.00392 34011 ft 421 kts 297°
2026-05-01 14:31 -24.12936 124.94911 33996 ft 421 kts 297°
2026-05-01 14:32 -24.09874 124.89416 34012 ft 421 kts 297°
2026-05-01 14:32 -24.06820 124.83940 33997 ft 422 kts 297°
2026-05-01 14:33 -24.03762 124.78463 34008 ft 422 kts 297°
2026-05-01 14:33 -24.00699 124.72984 34006 ft 423 kts 297°
2026-05-01 14:34 -23.97633 124.67505 34004 ft 424 kts 297°
2026-05-01 14:34 -23.95064 124.62919 34002 ft 424 kts 297°
2026-05-01 14:35 -23.91977 124.57415 34004 ft 425 kts 298°
2026-05-01 14:35 -23.88893 124.51921 34004 ft 425 kts 298°
2026-05-01 14:36 -23.85798 124.46417 34005 ft 425 kts 298°
2026-05-01 14:36 -23.82705 124.40919 34004 ft 425 kts 298°
2026-05-01 14:37 -23.79611 124.35427 34005 ft 426 kts 298°
2026-05-01 14:37 -23.76503 124.29914 34009 ft 426 kts 298°
2026-05-01 14:38 -23.73393 124.24407 34002 ft 426 kts 298°
2026-05-01 14:38 -23.70290 124.18918 34002 ft 426 kts 298°
2026-05-01 14:39 -23.67156 124.13378 34006 ft 427 kts 298°
2026-05-01 14:39 -23.64055 124.07902 34003 ft 427 kts 298°
2026-05-01 14:40 -23.60911 124.02356 34002 ft 427 kts 298°
2026-05-01 14:40 -23.57790 123.96857 33999 ft 427 kts 298°
2026-05-01 14:41 -23.54651 123.91332 33999 ft 428 kts 298°
2026-05-01 14:41 -23.51527 123.85843 33999 ft 428 kts 298°
2026-05-01 14:42 -23.48371 123.80302 34005 ft 429 kts 298°
2026-05-01 14:42 -23.45229 123.74793 33996 ft 429 kts 298°
2026-05-01 14:43 -23.42079 123.69274 33992 ft 430 kts 298°
2026-05-01 14:43 -23.38917 123.63742 33995 ft 430 kts 298°
2026-05-01 14:44 -23.35752 123.58210 33996 ft 430 kts 298°
2026-05-01 14:44 -23.31005 123.49925 33996 ft 431 kts 298°
2026-05-01 14:45 -23.26245 123.41633 33996 ft 432 kts 298°
2026-05-01 14:46 -23.23074 123.36115 33993 ft 432 kts 298°
2026-05-01 14:46 -23.18272 123.27772 33992 ft 433 kts 297°
2026-05-01 14:47 -23.15082 123.22234 33994 ft 433 kts 298°
2026-05-01 14:48 -23.10285 123.13921 33991 ft 433 kts 298°
2026-05-01 14:48 -23.05487 123.05621 33989 ft 433 kts 298°
2026-05-01 14:49 -22.99090 122.94573 33991 ft 433 kts 297°
2026-05-01 14:50 -22.92663 122.83498 33990 ft 434 kts 297°
2026-05-01 14:51 -22.87843 122.75204 33992 ft 434 kts 298°
2026-05-01 14:52 -22.83012 122.66909 33992 ft 434 kts 298°
2026-05-01 14:53 -22.78169 122.58606 33990 ft 434 kts 298°
2026-05-01 14:53 -22.74947 122.53090 33991 ft 434 kts 298°
2026-05-01 14:54 -22.71712 122.47556 33989 ft 434 kts 298°
2026-05-01 14:54 -22.68469 122.42016 33986 ft 434 kts 298°
2026-05-01 14:55 -22.65230 122.36486 33992 ft 435 kts 298°
2026-05-01 14:55 -22.61978 122.30941 33989 ft 435 kts 298°
2026-05-01 14:56 -22.58747 122.25437 33988 ft 436 kts 298°
2026-05-01 14:56 -22.55501 122.19915 33985 ft 436 kts 298°
2026-05-01 14:57 -22.52236 122.14366 33984 ft 436 kts 298°
2026-05-01 14:57 -22.47329 122.06038 33987 ft 437 kts 298°
2026-05-01 14:58 -22.44074 122.00521 33988 ft 437 kts 298°
2026-05-01 14:58 -22.40813 121.94998 33985 ft 437 kts 298°
2026-05-01 14:59 -22.37546 121.89471 33980 ft 437 kts 298°
2026-05-01 14:59 -22.34251 121.83905 33979 ft 438 kts 298°
2026-05-01 15:00 -22.29344 121.75634 33977 ft 438 kts 298°
2026-05-01 15:01 -22.26041 121.70076 33971 ft 439 kts 298°
2026-05-01 15:01 -22.22754 121.64547 33983 ft 439 kts 298°
2026-05-01 15:02 -22.19434 121.58971 33975 ft 439 kts 298°
2026-05-01 15:02 -22.16138 121.53441 33977 ft 440 kts 298°
2026-05-01 15:03 -22.12833 121.47900 33971 ft 440 kts 298°
2026-05-01 15:03 -22.09519 121.42350 33965 ft 441 kts 298°
2026-05-01 15:04 -22.06206 121.36807 33971 ft 441 kts 298°
2026-05-01 15:04 -22.02870 121.31233 33968 ft 441 kts 298°
2026-05-01 15:05 -21.99536 121.25668 33968 ft 442 kts 298°
2026-05-01 15:05 -21.96213 121.20125 33965 ft 443 kts 298°
2026-05-01 15:06 -21.92865 121.14547 33966 ft 443 kts 298°
2026-05-01 15:06 -21.89506 121.08959 33965 ft 444 kts 298°
2026-05-01 15:07 -21.86147 121.03376 33965 ft 445 kts 298°
2026-05-01 15:07 -21.82782 120.97786 33961 ft 445 kts 298°
2026-05-01 15:08 -21.79428 120.92221 33970 ft 445 kts 298°
2026-05-01 15:08 -21.76041 120.86608 33971 ft 445 kts 298°
2026-05-01 15:09 -21.72681 120.81046 33973 ft 446 kts 299°
2026-05-01 15:09 -21.69309 120.75468 33970 ft 446 kts 299°
2026-05-01 15:10 -21.65905 120.69844 33975 ft 446 kts 299°
2026-05-01 15:10 -21.60823 120.61459 33975 ft 447 kts 299°
2026-05-01 15:11 -21.55747 120.53095 33979 ft 447 kts 299°
2026-05-01 15:12 -21.52342 120.47492 33980 ft 447 kts 299°
2026-05-01 15:12 -21.47257 120.39133 33974 ft 448 kts 299°
2026-05-01 15:14 -21.38722 120.25139 33973 ft 449 kts 299°
2026-05-01 15:14 -21.33565 120.16697 33968 ft 450 kts 299°
2026-05-01 15:15 -21.26711 120.05497 33967 ft 451 kts 299°
2026-05-01 15:16 -21.19808 119.94242 33968 ft 451 kts 299°
2026-05-01 15:18 -21.11194 119.80229 33959 ft 451 kts 299°
2026-05-01 15:19 -21.04287 119.69017 33955 ft 451 kts 299°
2026-05-01 15:19 -20.99099 119.60609 33951 ft 451 kts 299°
2026-05-01 15:20 -20.93915 119.52221 33967 ft 450 kts 299°
2026-05-01 15:21 -20.90459 119.46638 33966 ft 450 kts 299°
2026-05-01 15:21 -20.87018 119.41081 33963 ft 450 kts 299°
2026-05-01 15:22 -20.81821 119.32702 33956 ft 450 kts 299°
2026-05-01 15:22 -20.78355 119.27119 33960 ft 450 kts 299°
2026-05-01 15:23 -20.74914 119.21583 33952 ft 449 kts 299°
2026-05-01 15:23 -20.71452 119.16019 33950 ft 449 kts 299°
2026-05-01 15:24 -20.68580 119.11406 33952 ft 448 kts 299°
2026-05-01 15:24 -20.65121 119.05856 33950 ft 448 kts 299°
2026-05-01 15:25 -20.61669 119.00323 33950 ft 447 kts 299°
2026-05-01 15:25 -20.58240 118.94832 33947 ft 446 kts 299°
2026-05-01 15:26 -20.54791 118.89313 33944 ft 446 kts 299°
2026-05-01 15:26 -20.51339 118.83794 33942 ft 446 kts 299°
2026-05-01 15:27 -20.47882 118.78274 33938 ft 446 kts 299°
2026-05-01 15:28 -20.42703 118.70014 33937 ft 447 kts 299°
2026-05-01 15:28 -20.39273 118.64549 33941 ft 446 kts 299°
2026-05-01 15:29 -20.34357 118.56143 33941 ft 444 kts 295°
2026-05-01 15:30 -20.28914 118.45576 33941 ft 444 kts 295°
2026-05-01 15:31 -20.19253 118.27475 33944 ft 444 kts 296°
2026-05-01 15:32 -20.13124 118.16053 33943 ft 444 kts 296°
2026-05-01 15:34 -20.03939 117.98972 33946 ft 444 kts 296°